Regional Weather Roundup
Issued by NWS

Home | Current Version | Previous Version | Graphics & Text | Print | Product List | Glossary On
Versions: 1 2 3 4 5 6 7 8 9 10 11 12 13 14 15 16 17 18 19 20 21 22 23 24 25 26 27 28 29 30 31 32 33 34 35 36 37 38 39 40 41 42 43 44 45 46 47 48 49 50
000
ASUS43 KLSX 301957
RWRMO

WEATHER SUMMARY FOR MISSOURI
NATIONAL WEATHER SERVICE SPRINGFIELD MO
300 PM CDT MON MAY 30 2016

NOTE: "FAIR" INDICATES FEW OR NO CLOUDS BELOW 12,000 FEET WITH NO
       SIGNIFICANT WEATHER AND/OR OBSTRUCTIONS TO VISIBILITY.
       CURRENT SKY AND/OR WEATHER CONDITIONS ARE NOT AVAILABLE FOR
       CHILLICOTHE AND FARMINGTON.

MOZ001>031-035>038-043-044-053-054-302100-
...NORTHERN AND WESTERN MISSOURI...

CITY           SKY/WX    TMP DP  RH WIND       PRES   REMARKS
KANSAS CTY INT TSTM      68  62  81 S16G32    30.00R
LEE`S SUMMIT   CLOUDY    72  59  63 S17G24    30.03R
ST JOSEPH      PTSUNNY   85  64  49 S8        29.95F
CHILLICOTHE      N/A     84  64  50 S8        29.99S

$$
MOZ066>068-077>081-088>096-101>105-302100-
...SOUTHWEST MISSOURI...

CITY           SKY/WX    TMP DP  RH WIND       PRES   REMARKS
SPRINGFIELD    CLOUDY    72  59  63 W10       30.07R
JOPLIN         CLOUDY    69  68  96 VRB6      30.05F
BRANSON        CLOUDY    72  63  73 CALM      30.07F

$$
MOZ032>034-039>042-045>050-055>058-069>072-302100-
...CENTRAL MISSOURI...

CITY           SKY/WX    TMP DP  RH WIND       PRES   REMARKS
COLUMBIA       NOT AVBL
JEFFERSON CITY PTSUNNY   85  61  44 VRB7      30.00F
ROLLA          CLOUDY    81  62  52 S7        30.03S
SEDALIA        CLOUDY    81  65  58 S8        30.02F
WARRENSBURG    CLOUDY    81  63  54 SE8       30.01S

$$
MOZ051-052-059>065-302100-
...EAST CENTRAL MISSOURI...

CITY           SKY/WX    TMP DP  RH WIND       PRES   REMARKS
ST LOUIS INTL  CLOUDY    85  60  42 SE12      30.02F

$$
MOZ072>076-082>087-097>100-106>115-302100-
...SOUTH CENTRAL AND SOUTHEAST MISSOURI...

CITY           SKY/WX    TMP DP  RH WIND       PRES   REMARKS
CAPE GIRARDEAU MOSUNNY   86  60  41 SE8       30.01F
POPLAR BLUFF   CLOUDY    85  60  42 E5        30.02F
WEST PLAINS    CLOUDY    82  62  50 SE9       30.05F

$$


USA.gov is the U.S. government's official web portal to all federal, state and local government web resources and services.